Location: Casteau
(50.5142°N, 4.0161°E)
Time: 23:15:40
(UTC+00:00)

S-56A Canister/Altair - Pass Details

Date: 01 August 2021
Orbit: 632 x 2500 km, 38.9° (Epoch: 19 September)

Event Time Altitude Azimuth Distance (km) Brightness Sun altitude
Rises 21:20:48 0° 279° (W) 6,161 12.9 -14.2°
Reaches altitude 10° 21:27:01 10° 263° (W) 5,015 12.0 -14.8°
Maximum altitude 21:34:31 17° 231° (SW) 4,163 11.2 -15.5°
Drops below altitude 10° 21:41:08 10° 197° (SSW) 4,304 11.0 -16.0°
Enters shadow 21:42:51 - 189° (S) 4,492 11.0 -16.2°
Sets 21:45:52 0° 178° (S) 4,946 - -16.4°
